Theta_e
315 314 314 314 314 315 315 316 317 320 324 325 320 317 325 330 318 315 333 342 325 320 327 325 325 335 342 339 330 328 336 345 348 349 350 351 350 350 352 352 354 354 354 355 355 353 351 350 350 351 352 353 354 355 357 357 357 357 358 358 357 357 356 356 356 356 355 355 354 354 354 354 353 353 353 353 353 353 353 353 353 353 354 354 356 356 356
314 313 313 314 314 316 319 321 322 323 326 328 324 322 327 330 324 323 338 342 332 325 327 327 331 340 345 347 338 333 338 345 347 349 350 349 349 350 351 351 352 352 353 354 354 353 353 350 349 351 351 352 354 355 356 357 358 358 359 359 358 358 358 357 357 356 356 356 355 355 354 354 354 354 353 353 353 353 353 353 353 353 353 354 355 356 356
314 314 314 314 314 318 323 327 329 331 333 329 322 323 329 328 326 329 336 335 333 335 341 343 345 346 349 351 346 339 340 345 346 348 348 348 350 349 349 351 351 351 353 353 354 354 354 350 350 351 351 351 353 354 356 357 358 359 360 360 359 359 358 358 357 357 357 356 356 356 355 355 355 354 354 354 353 354 354 353 354 353 353 353 353 354 355
315 314 314 314 314 319 327 330 331 334 337 331 326 335 342 336 330 332 330 326 332 346 350 345 348 355 359 363 359 347 342 344 346 347 348 348 350 348 349 350 350 351 352 353 354 354 352 349 350 350 351 353 353 353 355 356 358 359 360 361 360 359 360 359 358 359 358 357 357 356 356 356 355 354 354 354 354 353 354 354 354 354 353 354 353 353 353
317 314 312 315 320 328 335 334 330 332 338 342 346 349 348 345 344 341 333 330 341 351 346 345 362 372 373 376 374 362 350 348 348 347 347 349 348 348 349 350 350 350 351 352 352 352 350 349 349 350 351 352 352 354 354 356 357 358 360 361 361 361 361 360 360 359 359 358 358 357 356 356 356 356 355 355 354 354 354 354 354 354 354 354 353 353 353
317 313 313 324 334 338 338 333 328 329 334 343 350 349 345 344 346 346 345 344 347 349 349 359 373 372 366 366 365 362 360 357 351 347 348 347 347 347 348 349 349 349 350 351 350 349 350 350 349 350 351 353 354 353 354 355 357 358 360 361 361 361 361 361 361 360 360 359 359 358 357 357 356 356 356 356 355 355 354 354 354 354 354 354 354 354 353
317 316 321 337 346 339 336 331 326 327 329 333 341 347 344 342 343 345 350 351 354 362 365 363 364 363 362 361 361 362 365 367 367 368 370 363 357 353 350 349 350 350 351 352 350 347 349 350 350 350 352 353 355 354 355 356 357 358 360 360 361 362 362 361 361 361 361 360 360 359 359 358 357 357 356 356 355 355 355 354 355 354 354 354 355 354 354
318 319 323 335 340 337 335 331 326 327 328 328 335 346 347 342 340 343 348 352 357 366 367 362 361 361 360 361 361 360 363 367 371 375 378 378 375 373 370 369 368 362 355 352 350 348 350 350 351 352 352 355 356 356 356 357 358 358 359 361 361 362 362 362 362 362 362 361 361 360 359 359 358 358 358 357 356 356 356 355 355 355 355 354 354 354 355
319 317 316 324 334 338 337 332 325 324 327 327 331 342 347 342 339 340 344 348 352 358 362 364 364 361 362 366 362 357 359 363 364 366 367 367 370 373 373 373 372 363 354 353 353 352 352 353 353 353 355 357 358 358 358 358 359 359 360 361 362 362 362 363 363 362 362 361 361 360 360 360 359 359 358 358 357 357 356 355 355 355 354 355 354 355 355
318 316 315 324 338 342 335 329 323 322 326 325 326 336 347 343 336 337 342 346 349 353 358 362 363 363 367 369 363 356 356 358 359 361 362 361 363 364 364 364 363 360 360 361 360 359 360 359 357 355 357 358 360 360 360 360 359 360 360 361 362 362 363 363 363 363 363 363 362 361 360 360 359 359 359 358 358 358 357 356 356 355 355 355 355 354 354
315 314 316 324 336 338 330 326 324 324 326 325 327 340 350 343 334 335 339 344 347 350 355 361 364 365 370 370 361 355 355 355 356 358 359 360 360 360 360 362 361 361 363 362 362 363 364 364 363 361 359 360 362 361 361 361 361 361 360 361 361 363 364 363 364 364 364 363 363 362 362 361 360 360 359 359 359 358 358 357 357 356 356 355 354 354 354
315 316 317 324 333 333 326 325 326 325 326 328 335 349 351 340 333 333 336 341 345 347 352 356 359 362 367 365 356 352 353 354 353 354 356 357 358 358 357 358 358 359 361 361 361 362 361 363 365 362 362 363 362 363 363 362 362 362 361 362 362 362 363 364 365 365 365 365 364 363 363 361 361 361 360 360 359 358 358 358 357 357 356 355 355 355 354
316 317 316 322 331 330 325 326 327 326 330 337 344 349 344 337 333 331 332 338 341 343 347 351 353 355 355 353 350 349 350 351 352 352 352 353 355 357 357 357 357 357 357 357 357 357 359 363 365 363 363 364 363 363 363 362 362 362 363 363 363 362 362 363 364 365 365 365 364 364 363 363 362 362 360 361 360 358 358 358 357 357 357 356 356 355 355
316 316 315 322 331 328 324 328 329 329 334 342 343 339 336 334 332 328 329 333 336 340 344 346 348 348 346 346 348 347 347 349 350 351 351 352 353 355 356 356 355 354 354 354 354 354 357 361 364 364 364 364 364 364 362 362 364 364 363 363 364 363 363 364 364 365 366 366 365 365 365 364 364 362 362 361 360 359 358 358 358 358 357 357 356 356 356
321 321 322 327 331 328 326 330 332 331 333 336 335 333 332 331 328 326 327 330 333 338 342 342 342 343 343 344 346 345 346 347 348 348 350 352 353 353 354 355 354 353 352 351 351 352 354 357 360 363 363 362 362 362 361 362 364 366 365 365 364 364 364 364 364 364 365 365 365 366 365 365 364 363 363 362 361 360 359 358 358 358 358 358 357 356 356
324 327 326 324 325 326 328 331 333 331 330 331 331 332 331 328 326 325 327 328 329 334 339 340 340 340 341 342 343 343 344 344 345 347 348 349 351 352 352 354 353 351 350 350 349 351 353 354 356 358 360 360 359 358 360 362 364 366 367 366 365 365 364 363 364 365 364 365 366 366 366 366 365 364 363 362 362 361 360 359 359 358 358 358 358 358 357
321 326 325 321 322 327 327 328 329 329 329 329 328 328 328 328 326 325 326 326 326 329 334 338 339 339 340 340 340 341 341 341 343 345 346 346 348 349 350 351 352 350 350 349 348 350 352 353 353 355 356 357 356 356 359 363 365 366 367 368 368 367 364 363 363 364 364 365 366 365 366 366 366 366 364 363 363 362 362 360 360 359 359 359 359 359 358
318 322 322 319 321 324 325 325 326 326 326 327 327 326 325 324 324 324 325 325 324 324 329 334 337 338 338 339 340 339 339 339 340 342 344 344 344 346 348 350 351 350 349 349 349 349 350 352 352 353 354 355 354 355 357 362 365 365 367 368 369 368 366 363 362 363 364 365 366 365 366 367 366 366 365 365 364 364 362 362 361 361 361 360 360 360 360
316 320 322 319 319 321 322 323 323 321 322 323 325 326 325 323 323 323 324 325 324 322 324 329 335 337 337 338 339 338 338 338 339 340 342 343 342 343 345 348 349 350 349 348 348 348 349 351 352 352 352 353 353 354 356 359 364 366 367 368 369 369 366 363 362 363 365 365 366 366 366 366 367 366 366 365 365 364 364 363 363 362 362 362 362 362 361
315 317 318 316 316 319 321 322 321 320 320 320 321 323 324 324 323 324 324 324 324 322 321 324 330 335 337 337 339 339 338 337 338 339 340 341 340 340 342 345 348 349 348 348 348 348 348 349 350 350 351 351 351 352 354 356 360 365 368 368 369 370 367 365 363 364 365 365 366 367 368 368 367 367 367 366 366 365 365 365 364 364 363 363 363 363 363
314 314 315 315 316 318 320 319 319 319 319 318 318 319 321 322 324 325 323 321 321 321 322 322 325 330 335 338 338 339 338 337 337 338 338 338 337 339 341 343 345 348 349 349 349 348 348 349 349 350 350 349 350 350 351 352 357 363 367 367 369 369 368 367 364 365 366 367 368 368 367 366 365 365 366 367 367 367 366 366 366 366 365 366 366 365 365
314 314 314 313 314 315 315 314 316 317 317 317 316 317 318 320 323 324 322 321 320 320 321 322 323 325 331 337 338 338 339 338 337 337 337 336 335 337 339 341 343 346 349 350 349 349 349 349 349 350 349 349 350 349 349 351 355 361 365 366 368 369 369 368 366 366 367 368 368 366 364 363 362 360 360 363 366 367 368 368 368 368 366 367 368 366 366
312 312 311 310 311 311 311 311 313 314 315 316 315 315 316 319 322 324 322 322 323 322 321 322 323 323 327 334 337 338 338 336 334 335 336 335 336 337 339 340 341 343 347 350 350 349 349 349 348 349 349 349 349 350 352 352 354 358 362 364 365 367 369 369 367 367 368 367 365 363 362 362 361 358 355 357 360 364 366 367 367 368 368 368 369 369 368
310 310 309 309 310 310 310 310 311 310 312 315 315 314 316 319 323 323 321 321 324 324 323 323 323 322 323 328 334 340 339 333 332 335 337 336 337 338 340 341 341 342 345 348 350 350 349 349 348 348 348 348 348 349 352 353 354 356 360 362 363 365 367 368 367 366 366 365 362 360 358 358 359 358 357 354 351 353 360 365 365 366 367 366 366 367 366
309 309 309 309 310 309 309 310 310 309 310 312 314 314 316 320 324 323 321 321 324 324 324 324 323 321 321 323 329 336 336 332 332 337 337 335 337 339 340 341 342 344 345 348 350 351 349 348 349 348 347 348 348 348 350 353 354 356 358 360 361 362 363 365 365 363 362 361 358 358 358 357 356 357 357 352 344 340 345 352 357 360 361 361 362 362 360
309 309 309 309 309 309 310 310 309 309 309 310 312 315 317 319 323 323 321 321 321 320 321 323 322 320 320 323 327 331 333 333 335 336 334 333 336 338 339 341 343 346 348 350 350 350 348 347 348 346 345 348 349 349 350 353 354 355 357 359 359 359 357 358 360 360 359 357 356 355 355 355 355 353 352 351 346 339 336 338 340 342 343 345 347 348 347
310 310 311 313 313 312 311 310 310 310 310 310 313 316 316 316 318 319 319 319 319 317 317 320 321 319 320 324 328 332 334 335 334 333 331 332 335 336 338 342 345 347 348 348 348 349 348 347 346 345 344 347 349 349 350 352 353 354 355 356 356 356 353 351 352 354 355 355 354 352 351 350 349 347 345 344 343 339 335 333 331 330 330 331 332 333 333
310 310 311 314 315 314 312 311 310 309 309 311 312 313 314 314 315 318 319 320 320 318 317 318 319 319 323 327 329 332 334 333 331 330 328 328 330 334 338 342 343 344 343 342 342 343 345 345 347 346 345 347 348 349 349 351 352 352 352 352 352 352 351 348 346 347 348 349 349 348 347 346 344 342 340 339 337 335 334 332 330 330 329 329 329 329 329
309 310 311 313 314 314 313 312 310 310 310 311 311 312 313 314 315 318 321 323 323 323 321 319 318 319 324 329 330 332 333 331 328 325 324 325 327 331 336 339 340 339 338 336 336 337 338 341 343 345 345 347 348 348 349 350 349 348 348 348 349 348 347 346 344 342 341 341 341 342 343 342 340 338 336 335 335 333 332 332 331 331 331 332 332 332 332
309 309 311 312 313 313 312 311 311 310 310 311 312 312 312 312 314 316 320 323 326 325 323 320 320 323 328 329 328 328 327 325 323 322 322 323 324 327 332 336 336 334 332 331 331 333 334 335 337 339 342 345 347 348 348 348 346 345 345 346 346 345 345 344 343 340 338 337 337 338 338 338 337 336 335 334 334 333 333 334 333 332 333 333 334 334 334
308 309 310 312 312 312 311 310 310 310 309 310 311 311 311 312 313 314 316 322 326 326 323 324 326 328 329 327 324 323 322 321 320 320 319 320 322 323 326 329 328 326 326 326 327 329 332 333 334 336 338 342 344 346 347 346 344 343 343 343 343 342 342 342 341 340 338 337 337 338 338 337 338 338 337 337 336 335 335 334 332 331 331 331 331 332 332
308 308 308 310 311 312 312 311 310 310 310 310 311 311 312 313 313 314 317 322 324 324 326 329 330 328 326 322 321 319 319 318 318 318 318 319 320 321 321 322 322 322 322 323 324 326 328 330 332 334 337 340 342 343 344 345 343 341 341 339 339 339 339 339 339 338 337 337 336 337 338 338 339 338 338 337 336 335 333 331 329 327 327 327 328 329 331
308 308 308 309 310 312 313 313 312 311 311 312 312 312 313 313 314 315 318 321 323 325 329 330 328 324 322 320 318 318 318 317 317 317 316 317 318 319 319 319 320 320 320 321 323 325 326 328 330 333 337 339 340 341 343 344 342 340 337 336 335 334 334 335 335 335 334 333 332 332 333 334 335 335 334 332 332 330 329 327 326 324 324 324 324 327 329
307 308 307 307 308 310 312 314 314 314 313 313 313 314 314 314 314 315 317 319 323 327 329 326 323 321 319 318 317 316 317 318 318 317 315 316 317 318 317 318 319 320 321 321 323 324 325 327 330 333 335 336 336 336 338 340 339 338 337 335 333 331 331 330 330 330 329 328 327 327 327 327 328 328 328 327 326 325 324 323 322 321 321 321 322 325 327
306 306 306 306 307 307 309 311 313 315 315 315 316 317 316 314 313 315 317 319 322 324 323 320 319 318 317 315 315 315 315 315 316 315 314 315 317 317 317 317 318 318 319 319 320 321 323 325 328 330 331 332 332 332 331 333 334 335 334 333 331 328 327 327 327 325 324 323 324 323 322 322 322 322 322 322 322 321 320 319 318 318 318 318 320 322 324
306 306 306 306 306 307 307 308 310 312 314 315 316 317 317 317 316 318 319 320 320 320 319 317 317 316 315 314 314 313 313 313 313 313 314 315 316 316 316 317 317 317 317 317 318 319 320 322 324 326 327 327 328 328 327 327 328 329 329 330 328 326 324 324 323 322 321 321 320 319 319 319 318 318 318 318 317 316 316 315 314 314 315 315 316 318 320
305 305 306 306 306 306 306 307 308 309 310 312 313 313 314 315 316 317 318 318 317 317 316 315 314 314 313 313 313 313 313 313 313 313 314 314 314 315 315 316 316 316 316 316 317 318 319 320 321 321 321 321 323 323 323 323 323 323 324 324 323 322 321 320 320 319 318 318 317 317 317 317 316 315 315 314 314 313 313 312 311 311 311 311 312 313 314
305 305 305 305 306 306 305 306 306 307 308 310 311 312 312 312 312 313 313 314 315 315 314 313 313 313 312 313 313 313 312 312 312 313 313 313 313 314 314 314 315 316 315 315 316 317 318 320 320 319 316 315 316 317 318 319 319 319 320 320 319 318 318 317 316 315 314 314 314 314 314 313 313 312 312 312 311 311 310 310 309 309 308 308 309 309 310
305 305 305 305 305 305 305 305 305 306 306 307 308 310 311 311 311 311 311 312 312 313 313 313 312 312 312 312 312 312 312 312 312 312 312 312 312 312 312 313 314 314 314 314 314 314 315 317 318 318 317 316 315 315 314 314 314 314 316 316 316 316 315 315 314 313 313 312 312 311 310 310 309 309 309 309 309 308 308 307 307 307 306 306 307 307 307
305 305 305 305 305 305 305 305 305 305 305 306 306 307 309 310 310 310 311 311 311 311 311 311 311 312 312 312 312 311 311 311 311 311 312 312 312 312 312 312 312 313 313 313 313 313 312 312 313 314 314 316 317 317 315 315 313 312 311 311 312 312 312 312 312 311 311 310 310 309 308 308 307 306 306 306 305 305 305 305 304 305 305 305 305 305 305
306 305 305 305 305 305 305 305 305 305 305 305 305 305 307 308 309 309 310 310 310 310 310 310 310 310 310 310 311 311 311 311 311 311 311 311 311 311 311 311 311 312 312 312 312 312 311 311 310 310 310 311 313 314 315 316 315 312 310 308 308 308 308 308 308 308 308 308 307 307 306 306 306 305 304 304 303 303 302 302 302 302 302 303 303 303 303
308 306 305 305 305 305 305 305 305 305 304 305 305 305 305 306 307 308 308 308 309 309 309 310 310 310 309 309 310 310 310 310 311 311 311 311 311 311 311 311 311 311 311 311 311 311 310 310 310 310 309 309 309 310 311 313 313 312 310 308 307 306 306 305 305 305 305 304 304 304 304 303 303 303 302 302 302 301 301 301 300 300 300 301 301 301 301
310 308 306 306 306 306 306 305 305 305 305 304 304 305 305 305 305 306 307 307 308 308 308 309 309 309 309 309 309 309 309 309 310 310 310 310 310 310 310 310 310 310 310 310 310 310 310 310 310 309 309 308 307 307 307 308 309 309 308 307 306 305 304 303 303 303 302 302 301 301 301 300 300 299 299 299 299 299 299 299 299 299 299 299 299 299 299
310 310 309 308 307 307 307 306 305 305 305 305 304 304 304 305 305 305 306 306 307 307 308 308 308 308 309 309 309 309 309 309 309 309 309 309 309 310 309 309 309 309 308 309 309 309 309 309 309 309 308 307 306 305 305 305 305 305 304 304 303 303 303 302 301 301 300 300 299 299 299 298 298 297 297 297 297 297 297 297 297 297 297 297 297 297 297
310 310 310 309 308 308 308 307 306 305 305 304 304 304 304 304 304 304 305 305 306 306 307 307 307 308 308 308 308 308 308 308 309 309 309 309 310 309 309 308 308 308 307 307 307 307 308 308 307 307 307 306 306 305 305 304 304 303 303 302 302 302 301 301 301 300 300 300 299 298 298 297 297 297 297 296 296 296 295 295 295 295 295 295 295 295 295
310 310 310 309 309 309 308 307 306 305 304 304 304 305 304 304 304 304 304 304 305 305 305 306 306 307 307 307 307 307 307 307 307 308 308 309 309 309 309 308 308 308 307 307 306 307 307 306 306 306 306 306 305 305 305 305 304 303 303 303 302 302 301 301 301 300 300 300 299 299 298 298 297 296 296 296 296 295 295 294 294 294 294 293 293 293 293
309 309 309 309 308 308 308 308 307 306 306 305 305 305 304 304 304 304 304 303 304 304 304 305 306 306 306 306 306 306 306 306 306 306 306 307 307 308 308 308 307 307 306 306 306 306 306 305 305 305 305 305 305 304 304 304 304 304 304 303 303 303 302 301 301 301 300 300 299 299 298 298 297 297 296 296 295 295 295 295 294 294 293 293 293 293 292
309 308 309 308 308 308 308 308 308 308 308 307 306 305 304 303 303 304 304 303 303 303 304 304 305 305 305 305 305 305 305 306 306 305 305 305 305 306 306 306 306 305 305 304 305 304 304 304 304 304 304 304 304 304 303 303 303 303 303 303 303 303 302 301 301 300 300 300 299 299 298 298 298 297 297 296 295 294 294 294 294 294 294 293 293 293 293
307 306 307 307 307 308 308 308 307 307 307 307 306 306 305 304 304 304 304 303 303 303 303 303 304 304 304 304 305 304 304 304 304 304 303 303 303 304 304 304 305 304 304 304 304 303 303 303 303 303 303 303 303 303 303 303 303 302 302 302 303 303 302 302 301 301 301 300 300 299 299 299 298 298 297 296 295 294 293 293 293 293 293 293 293 293 293
307 306 305 305 305 306 307 308 307 306 306 306 306 305 305 305 305 304 304 303 303 303 303 303 303 303 303 303 304 303 302 302 302 303 302 302 302 302 302 303 303 303 302 302 302 302 302 301 301 302 302 302 302 302 302 302 301 301 301 301 301 302 302 302 302 301 301 301 301 300 300 300 299 299 298 297 295 294 293 293 293 293 293 294 293 293 293
306 306 305 305 305 305 306 307 307 306 305 305 305 305 305 305 304 304 304 303 303 303 303 303 303 303 302 302 302 302 302 301 301 301 301 301 301 301 301 301 301 301 301 301 301 301 301 301 300 300 301 301 301 301 300 300 300 300 300 299 300 300 300 300 300 300 300 300 300 300 300 300 299 299 298 297 296 295 294 294 295 295 295 295 295 295 295
303 304 304 303 304 305 305 305 306 305 304 303 303 303 303 303 303 303 303 303 302 302 302 303 303 303 302 302 302 301 301 301 300 300 300 300 300 300 300 300 300 300 300 300 300 300 300 300 300 300 300 300 300 300 299 299 299 299 299 298 299 299 299 299 299 299 298 298 298 298 298 298 298 298 297 296 295 295 295 295 295 296 296 295 295 295 295
Wind_Speed
11 14 17 17 14 13 13 13 16 18 16 12 13 13 10 10 8 9 6 8 12 16 18 17 13 7 7 9 9 11 12 13 13 13 14 15 15 15 15 16 16 18 18 17 16 17 19 22 25 26 27 29 30 31 32 34 35 36 36 37 37 37 36 37 38 39 39 38 38 38 37 37 37 37 38 38 38 38 38 38 38 38 38 37 37 37 38
14 15 14 13 11 10 12 13 13 16 16 15 15 12 10 12 10 8 7 10 14 15 14 13 8 6 8 6 5 6 8 11 12 13 15 15 15 16 17 17 17 18 18 17 17 17 17 20 24 25 26 29 31 31 33 34 35 36 37 37 37 37 37 38 38 38 37 37 37 37 37 37 38 38 37 37 37 37 37 37 38 38 37 37 37 37 38
11 11 7 7 8 9 10 10 9 11 12 12 14 11 7 9 7 4 6 9 11 10 7 6 5 4 3 1 4 8 10 12 12 13 14 14 15 16 17 17 17 17 17 16 16 16 17 20 25 27 28 30 31 32 32 34 35 36 36 36 36 36 36 37 37 36 36 36 36 36 37 38 38 38 37 37 37 37 37 37 37 37 37 37 38 38 38
7 6 8 13 15 11 8 5 13 17 12 3 6 3 1 3 5 3 4 6 8 7 4 2 3 6 6 3 2 6 8 9 12 14 14 14 15 15 16 16 16 16 15 15 15 15 17 21 26 28 28 29 30 31 33 34 34 34 35 35 35 35 35 36 36 36 36 35 35 36 36 37 37 37 37 37 37 37 36 37 37 36 37 37 38 39 38
6 5 10 15 13 8 4 2 11 14 11 6 7 7 9 6 1 4 5 6 6 6 5 2 5 9 7 6 5 4 6 6 10 13 14 15 15 16 16 16 16 16 14 14 16 17 19 24 29 31 32 31 32 34 35 34 33 34 34 34 34 35 35 36 36 36 36 36 36 36 36 37 37 37 37 37 38 37 37 37 36 36 38 38 39 39 38
5 10 14 10 1 0 2 3 9 12 10 11 11 8 9 9 5 1 3 6 6 4 4 2 5 8 6 5 7 5 2 3 7 9 10 12 13 14 15 15 15 15 14 13 15 18 23 28 31 32 33 33 33 33 33 33 33 33 33 33 34 35 36 36 36 36 36 36 36 36 37 38 38 37 37 38 38 38 37 36 36 38 38 38 39 39 39
4 9 10 1 6 2 2 5 9 11 7 7 7 6 10 14 12 10 8 6 4 4 5 4 5 9 9 10 13 13 9 4 1 4 4 6 9 9 10 11 11 11 11 11 12 17 24 27 26 26 28 27 27 28 30 31 32 33 33 33 34 35 35 35 35 35 36 35 36 36 37 37 37 37 37 37 37 37 36 37 38 38 38 38 39 39 39
2 4 4 3 4 5 3 3 8 12 8 9 8 6 12 17 14 12 10 9 7 5 5 3 1 4 10 15 15 14 13 10 7 6 5 6 7 7 7 8 8 8 9 11 12 15 20 22 23 23 24 25 24 26 29 30 30 32 32 32 32 33 33 34 35 35 35 36 36 36 36 36 36 37 37 37 37 37 37 37 38 38 38 38 38 38 38
1 2 4 3 3 5 4 2 7 9 6 9 9 4 8 13 13 12 11 10 10 7 3 3 5 4 9 14 12 14 14 12 10 9 8 7 9 9 8 9 10 11 14 15 15 16 18 19 22 22 23 24 25 25 26 28 29 30 29 29 31 32 32 33 35 36 36 36 36 36 36 36 36 37 37 37 37 37 37 36 37 37 38 38 38 38 38
1 2 3 4 2 1 2 7 11 8 5 8 8 3 3 11 15 14 12 11 11 9 7 7 7 4 9 10 7 10 13 11 11 12 10 10 11 10 10 11 13 16 19 19 18 19 19 17 20 24 25 26 26 25 25 27 27 27 27 28 30 31 32 34 35 36 37 37 37 37 36 36 37 37 38 37 38 38 38 37 38 38 38 38 38 38 38
2 1 2 3 2 2 5 14 18 13 7 7 6 1 4 11 16 15 12 11 11 9 9 8 4 3 8 5 4 7 9 10 11 11 11 11 11 12 13 15 16 18 22 24 22 21 18 13 14 23 29 29 27 25 25 26 26 26 27 29 30 31 33 35 37 38 38 38 38 37 36 37 38 38 39 38 38 38 38 38 38 37 37 36 37 37 38
4 3 3 2 1 2 8 15 18 17 13 7 2 3 4 9 14 14 13 12 12 11 10 8 6 8 7 4 3 6 8 8 10 11 11 11 10 11 14 17 20 22 25 26 23 20 17 14 12 18 25 27 25 23 24 25 25 26 28 31 32 33 35 36 37 37 37 38 38 37 37 38 39 39 39 38 37 36 36 36 36 35 35 35 35 35 36
4 3 2 2 1 2 10 16 17 17 12 3 3 4 3 8 11 12 12 12 12 12 9 7 7 8 8 6 7 8 9 10 11 11 11 11 12 13 14 17 21 24 25 25 23 20 19 19 18 16 19 18 16 17 18 19 20 22 23 25 27 29 31 32 34 35 36 37 38 38 38 39 38 38 38 37 36 35 35 35 34 33 33 33 33 33 34
3 3 2 2 1 1 9 15 16 14 7 3 4 4 5 8 10 10 12 13 12 11 9 7 7 8 10 10 11 11 11 11 11 11 11 11 13 14 15 17 20 22 22 23 23 23 24 24 22 19 19 17 13 11 10 6 7 11 14 18 22 24 26 29 31 32 34 35 36 37 37 37 36 35 36 36 35 35 34 33 32 32 32 31 31 31 31
1 1 0 1 0 3 10 13 10 9 7 3 3 5 5 7 9 9 11 11 11 11 9 8 8 10 12 12 11 11 12 11 11 11 11 10 11 12 13 14 17 19 19 20 21 22 24 26 24 22 21 19 16 13 11 7 3 1 6 13 18 22 26 28 30 32 33 34 35 35 35 35 34 34 35 35 34 33 32 31 30 30 30 30 29 28 28
2 1 2 3 2 3 8 8 5 7 6 4 4 5 6 7 8 8 8 10 11 11 10 9 10 12 12 12 11 11 12 11 11 11 11 11 10 10 11 13 16 18 18 18 20 22 24 25 24 22 21 19 16 15 13 10 7 5 3 7 13 19 24 28 30 32 33 33 34 34 34 34 33 33 33 32 32 32 31 30 28 27 27 28 27 25 25
3 2 2 3 3 2 5 6 6 7 7 7 8 8 7 7 7 6 7 9 11 12 11 10 11 11 11 10 11 11 10 10 11 11 11 11 11 11 12 14 16 17 17 18 19 21 23 24 22 20 19 18 16 15 14 12 10 8 6 4 8 15 21 25 28 30 32 32 33 33 33 33 33 32 31 30 29 29 29 28 27 25 25 25 25 24 24
6 3 3 4 4 3 4 5 7 8 8 8 8 8 7 8 9 8 7 8 10 11 12 11 10 10 10 9 9 10 10 10 11 10 10 11 13 13 13 14 15 17 18 18 18 18 20 21 21 18 17 16 15 14 13 13 11 9 8 6 6 9 15 20 23 25 27 29 30 31 31 32 33 32 31 29 28 28 28 27 26 25 24 24 24 23 23
5 1 3 5 5 2 4 6 7 8 9 9 8 6 6 8 9 9 9 9 10 11 11 11 10 10 11 10 9 8 8 9 10 10 10 10 11 12 13 13 13 15 15 14 14 15 16 17 18 16 15 15 14 13 12 13 12 9 7 7 7 7 10 15 17 20 23 25 26 27 28 29 30 30 30 29 28 27 26 25 24 23 22 22 22 21 21
4 4 4 5 5 1 4 6 5 6 7 10 10 8 7 7 9 10 10 9 8 9 10 10 9 10 11 11 10 8 7 7 8 8 9 9 10 13 16 16 14 12 11 11 11 11 13 14 14 14 13 13 13 12 13 13 12 10 8 6 7 6 7 10 13 17 21 23 24 24 24 23 23 22 23 24 25 25 25 25 24 23 22 22 23 23 23
5 5 4 6 6 2 5 7 7 6 6 9 11 11 10 8 8 10 11 10 9 8 8 8 8 9 9 9 9 9 8 8 8 8 8 9 11 13 15 17 15 11 9 9 10 10 11 13 13 12 12 12 12 12 13 13 13 11 9 6 6 6 5 7 10 14 17 19 21 21 20 18 15 13 14 17 19 20 22 24 25 25 25 25 26 27 26
4 3 4 7 7 7 6 1 5 7 7 8 10 12 13 10 7 7 10 11 11 9 8 7 7 8 8 8 7 8 8 7 8 8 9 10 12 14 15 16 17 14 9 7 9 10 10 12 12 12 11 12 12 12 11 12 13 12 10 7 5 5 5 6 9 12 14 16 18 20 19 18 17 14 10 11 14 16 18 20 23 24 25 26 27 27 26
8 9 9 8 7 10 12 9 3 5 7 7 7 9 11 11 8 6 7 9 11 11 10 8 7 7 8 8 7 6 7 8 9 10 10 10 11 13 14 14 15 14 10 5 6 8 8 9 10 10 10 12 12 12 10 10 11 11 10 7 4 4 5 6 9 12 15 17 19 20 20 20 20 17 13 9 8 10 13 16 18 20 22 22 24 24 24
13 13 11 9 9 12 14 12 8 5 4 4 6 8 9 10 8 5 4 5 7 9 9 9 10 9 8 7 7 6 5 7 9 12 13 11 11 12 12 11 11 12 10 5 3 5 7 9 10 10 10 10 11 11 10 9 9 10 9 6 5 5 6 7 10 13 16 18 20 21 21 20 20 20 18 15 12 8 6 9 12 14 16 16 17 19 20
12 12 11 11 13 15 14 13 12 9 5 4 6 9 9 8 7 5 3 2 3 6 8 9 11 14 12 8 7 7 6 6 9 12 13 13 13 12 12 12 12 12 10 7 5 7 9 10 10 10 10 9 9 10 10 9 8 7 7 6 5 6 7 9 11 14 16 19 21 22 22 22 21 21 20 19 18 18 15 12 9 8 8 9 11 13 14
11 12 12 13 15 14 11 11 12 10 9 9 9 8 7 8 7 6 5 3 0 4 7 7 10 15 16 11 8 8 7 8 11 13 13 13 14 13 13 14 13 11 9 8 8 9 11 11 10 9 9 9 9 9 9 7 5 5 4 3 3 4 6 9 13 15 17 19 21 22 22 23 22 21 20 22 24 24 23 21 19 17 17 16 14 14 15
10 10 10 11 12 11 10 12 13 10 9 10 9 9 7 6 7 7 9 7 5 2 3 8 11 15 17 14 11 10 9 9 10 11 11 11 13 15 16 15 11 9 9 10 10 9 9 10 9 9 8 8 8 8 7 5 3 2 3 2 1 1 2 5 9 14 17 19 21 21 21 20 21 21 22 23 24 24 24 23 23 22 21 22 22 22 22
11 11 10 9 11 11 10 11 12 11 9 9 8 7 9 7 5 5 7 7 6 5 2 7 9 10 12 12 9 8 7 7 7 7 9 12 14 15 14 12 10 11 12 14 15 12 10 9 8 7 6 6 7 6 4 2 2 3 4 4 4 4 3 3 5 9 14 17 19 21 21 20 20 21 23 23 23 23 24 24 24 24 22 22 21 21 20
12 12 10 10 11 13 10 7 6 7 7 7 7 5 4 5 4 5 5 5 4 4 3 3 5 9 11 10 7 5 4 4 6 7 10 13 14 13 10 7 11 15 17 18 19 17 14 11 9 7 6 5 4 3 2 3 5 6 7 7 7 7 7 6 7 8 10 13 16 19 20 21 21 22 24 24 25 25 25 24 24 24 23 22 21 20 19
13 12 13 12 9 8 8 7 7 7 7 6 5 5 4 4 5 5 5 4 4 4 4 4 3 6 7 6 5 5 4 4 6 8 10 12 12 11 8 6 9 12 15 17 19 18 17 15 13 11 9 6 2 2 4 6 9 10 10 9 9 10 10 10 11 12 12 13 16 19 20 19 20 21 23 24 24 24 23 23 23 22 21 20 19 19 18
15 14 16 17 10 5 6 7 6 7 8 7 7 7 7 7 6 6 6 6 5 5 4 4 3 3 3 1 1 3 5 6 7 8 9 10 11 12 12 12 11 10 11 15 18 19 17 15 14 13 11 6 1 5 7 9 11 12 13 14 14 14 14 15 16 17 16 15 16 20 22 21 18 19 22 24 24 22 22 23 23 23 23 23 21 19 18
15 14 17 18 13 7 4 5 5 6 7 7 8 9 8 8 8 8 7 5 5 5 4 3 4 4 4 5 6 7 8 8 8 9 10 11 12 13 15 17 18 17 18 19 20 19 19 18 16 14 10 4 3 7 10 12 13 15 17 18 19 19 19 19 21 22 20 17 16 18 23 25 23 21 22 25 25 23 23 24 24 24 26 27 24 21 19
14 14 15 16 15 13 9 3 4 6 7 6 6 7 7 7 7 7 6 5 5 5 4 4 4 5 6 7 7 8 9 9 9 10 11 11 12 14 16 19 22 23 23 22 21 21 21 20 17 13 9 4 6 10 13 14 16 19 21 22 22 22 22 23 25 25 24 22 18 18 22 27 28 26 25 27 28 27 26 26 25 24 26 27 25 23 22
12 11 13 14 14 13 13 9 4 3 5 5 5 5 6 6 6 6 6 5 4 4 4 5 6 6 8 8 7 7 7 6 6 7 8 9 11 12 15 20 24 25 25 25 23 23 23 21 17 13 11 10 10 11 13 16 20 23 24 24 24 24 24 25 26 27 28 26 23 22 24 27 29 29 29 29 30 30 29 27 25 25 26 25 24 23 23
11 10 13 15 16 16 15 13 10 7 4 2 2 3 3 4 5 6 7 6 5 6 7 9 9 9 10 9 8 8 7 6 5 6 8 9 10 10 13 18 22 25 27 28 27 25 24 22 19 18 18 18 16 13 11 13 19 24 26 27 27 26 27 28 29 29 29 29 28 26 25 26 28 31 32 32 30 29 28 26 25 25 25 24 22 22 21
16 13 12 14 17 19 18 15 13 11 9 7 5 5 4 4 4 3 1 4 6 8 10 12 11 10 10 9 8 9 9 8 8 9 10 10 11 13 16 18 19 19 20 23 24 25 26 25 23 23 24 24 22 19 15 12 15 21 25 28 30 29 28 30 32 31 30 30 30 29 27 27 29 31 32 32 30 27 26 25 24 25 25 23 21 21 20
20 17 13 13 17 20 20 18 18 17 14 12 10 10 9 8 9 11 11 11 10 9 11 13 12 11 10 10 11 12 13 11 10 11 10 11 14 18 20 19 17 15 13 12 14 18 24 27 27 28 29 29 27 23 19 14 13 18 23 26 28 29 30 31 32 31 30 30 31 31 30 31 31 31 31 31 29 26 24 23 23 23 23 22 21 20 20
23 22 19 17 19 21 22 23 26 26 21 17 15 14 13 12 13 15 16 15 13 11 12 14 15 14 13 13 14 14 14 13 12 12 11 11 16 21 21 18 16 15 13 11 11 14 20 24 26 29 32 33 32 29 25 20 17 17 21 24 24 25 28 30 31 30 28 28 29 30 30 31 31 30 29 28 27 24 23 24 23 22 21 20 20 20 20
18 20 21 21 21 21 22 25 29 30 26 20 17 17 17 16 17 19 19 18 16 14 13 15 15 14 13 12 12 12 12 12 12 13 12 14 19 24 22 20 18 17 15 16 18 20 22 25 27 29 30 31 31 32 31 28 25 23 22 24 25 23 23 25 26 26 25 26 26 27 28 28 29 28 25 23 22 22 22 22 22 21 21 21 21 21 20
11 14 17 18 18 19 20 21 23 27 28 26 23 21 19 17 19 20 19 19 19 19 18 17 15 13 11 11 11 11 12 11 11 12 12 13 18 21 20 19 20 19 18 20 23 25 27 30 32 31 30 31 31 31 31 30 29 29 29 28 27 26 25 24 24 23 23 24 25 26 26 26 26 25 23 22 22 22 21 20 20 21 21 21 21 20 20
8 12 15 16 16 17 18 18 19 22 26 28 28 27 24 21 21 21 19 19 21 22 23 22 18 14 13 13 13 14 15 14 14 13 12 12 14 14 13 14 18 20 21 24 27 28 30 33 34 32 32 33 33 34 34 33 31 31 33 33 32 30 28 28 28 26 24 24 26 26 26 26 26 25 23 23 22 22 21 21 21 21 21 21 20 20 19
5 8 10 12 13 14 16 17 18 19 22 24 26 28 28 27 25 23 21 22 23 24 24 24 21 18 16 16 16 16 16 17 17 18 18 17 15 13 12 14 18 21 24 28 30 31 32 33 33 32 32 32 32 35 38 38 38 37 37 36 35 32 31 30 30 29 27 27 27 26 25 27 27 24 23 22 21 21 22 23 23 23 23 22 21 20 20
5 4 4 6 9 11 13 15 16 17 19 21 24 26 27 28 28 27 25 25 24 24 24 24 23 21 19 17 16 15 14 15 16 18 20 23 23 21 19 20 21 23 26 29 31 31 31 32 31 31 31 31 32 35 38 38 39 40 40 39 38 36 33 31 31 31 31 31 30 28 28 28 28 26 24 22 22 21 21 21 21 22 24 25 25 24 23
9 6 2 1 3 5 8 12 13 14 15 18 21 23 25 26 27 28 27 26 25 25 25 24 23 22 21 19 17 14 13 13 14 15 16 18 21 24 24 24 24 25 28 30 31 30 30 29 29 29 30 32 35 38 38 38 38 38 39 38 38 38 36 34 33 33 33 33 32 31 30 31 31 30 28 27 27 27 26 25 23 22 23 25 26 26 25
10 10 8 4 2 1 4 7 9 11 13 15 18 20 22 22 24 26 26 26 26 26 26 25 25 23 22 20 19 17 16 16 16 16 13 12 13 17 21 24 24 24 26 28 30 30 30 29 29 30 32 34 36 37 38 38 37 37 37 36 36 36 35 35 35 35 35 34 33 31 30 30 30 30 28 28 29 29 29 29 28 26 26 27 27 26 25
7 9 10 9 7 5 6 8 9 10 11 13 14 15 17 18 20 21 22 23 24 24 24 25 26 25 24 21 20 19 19 19 19 20 19 17 17 18 22 24 25 24 25 27 28 29 28 28 28 30 31 33 35 36 35 35 35 35 35 35 35 34 33 33 33 34 34 33 31 30 29 29 29 28 27 27 27 27 27 28 28 27 28 29 29 28 28
9 8 6 6 7 6 5 7 8 8 9 8 8 10 13 16 17 18 18 19 20 20 21 22 22 23 22 21 20 18 18 18 19 21 23 23 22 21 23 24 25 26 27 27 27 27 26 26 27 28 29 31 33 33 32 32 33 33 32 31 31 31 30 30 30 30 31 30 29 29 29 28 28 27 26 26 26 26 26 26 26 27 28 29 29 29 28
10 8 6 5 5 4 3 4 6 6 6 6 6 7 9 12 15 16 17 17 18 17 18 19 19 18 18 18 19 19 18 16 15 17 22 23 22 22 22 23 24 27 28 28 28 28 28 27 27 28 29 29 29 29 29 30 30 30 29 28 27 26 27 28 28 28 28 27 27 27 27 27 26 26 26 26 26 26 26 26 26 27 27 28 27 27 27
12 11 11 11 10 9 7 4 4 4 5 7 7 7 7 9 11 13 14 16 17 17 17 18 18 17 17 16 17 19 21 20 18 18 22 24 24 23 23 23 23 25 27 28 27 27 28 28 28 29 29 29 29 28 28 29 29 28 28 28 26 26 25 25 25 25 24 24 24 24 24 24 24 25 25 25 25 25 26 26 26 26 26 26 26 25 25
9 9 11 12 11 9 8 6 4 3 3 5 6 6 7 9 9 9 10 12 14 14 15 16 17 17 18 18 17 17 19 20 20 20 22 24 24 24 24 24 25 26 27 26 26 26 27 28 28 28 28 28 28 28 28 28 28 29 29 29 28 27 26 25 25 25 25 24 23 23 22 22 21 22 22 22 23 23 24 24 24 24 24 24 24 23 23
9 7 7 9 10 9 7 6 6 5 4 5 6 7 10 11 10 9 10 10 10 10 11 12 13 14 16 17 17 16 17 17 18 19 20 22 23 24 25 26 27 27 27 26 26 26 26 27 27 28 29 29 29 29 30 30 30 30 31 30 30 29 29 28 27 27 27 26 25 24 23 21 20 20 19 20 20 20 21 21 21 20 20 20 20 19 19
14 12 10 10 12 12 11 8 5 5 8 10 10 12 14 15 14 12 11 11 10 10 10 10 11 13 14 15 14 14 15 16 16 17 18 20 22 23 24 26 27 28 28 27 27 28 28 28 29 29 30 30 30 31 31 32 32 31 31 32 31 31 30 30 29 29 28 28 27 26 24 23 21 20 19 18 18 18 18 18 17 17 16 16 16 16 16
Wind_Direction
277 271 272 273 269 261 253 259 266 268 275 272 243 221 185 152 180 224 219 182 214 243 251 253 256 253 250 242 220 213 202 185 183 180 177 183 181 175 176 178 179 181 184 185 183 185 187 187 188 189 190 191 191 192 193 193 194 195 195 195 197 199 200 203 205 207 208 208 210 211 212 213 215 216 217 218 219 220 221 222 224 226 227 228 230 232 233
291 277 267 258 256 265 268 265 265 266 265 256 248 234 183 170 201 217 188 190 219 238 247 257 264 247 239 231 217 228 207 182 181 177 177 184 180 175 178 180 182 185 186 185 184 184 185 185 187 188 189 191 191 192 193 193 194 195 194 194 196 198 200 203 206 207 208 209 209 210 211 213 215 216 217 218 219 221 222 223 225 226 227 228 230 232 234
297 284 281 284 289 286 270 278 314 316 291 252 233 229 195 180 203 221 191 204 233 252 257 268 298 312 292 207 192 213 203 185 181 177 178 183 180 178 180 180 183 186 186 185 183 182 184 185 187 189 191 191 192 194 195 195 195 194 193 194 196 199 201 204 205 207 207 208 209 210 211 213 214 215 216 218 219 221 222 223 225 226 227 228 230 232 234
291 296 329 323 317 305 268 313 355 342 325 278 187 183 68 174 188 172 167 203 243 272 280 282 12 23 13 1 262 236 221 193 180 176 178 181 179 180 182 182 184 185 183 181 180 183 185 186 188 191 191 190 192 196 197 196 195 193 193 195 196 199 202 204 205 206 206 207 208 210 211 212 214 215 216 217 219 220 221 223 224 226 227 229 230 232 233
282 305 324 315 317 320 279 354 7 343 338 34 79 56 20 359 200 166 181 216 253 279 290 308 55 47 27 10 357 285 250 221 194 184 180 180 180 179 180 181 182 181 180 181 182 184 184 186 191 193 190 190 194 197 197 195 194 193 193 195 196 200 202 203 204 205 205 206 208 209 211 212 214 215 215 216 217 219 221 222 224 226 228 229 231 232 233
289 304 313 307 303 340 238 106 29 352 353 35 59 56 17 0 357 326 240 257 280 309 325 346 91 82 62 37 27 13 321 237 209 193 181 179 180 179 180 182 183 181 181 181 180 182 185 189 193 193 191 193 196 196 195 194 193 192 193 194 197 200 203 203 204 205 205 206 207 209 210 212 213 214 214 216 217 219 220 221 223 225 227 229 231 232 233
279 305 320 327 154 210 215 104 36 357 351 23 44 60 31 16 9 1 349 321 328 40 44 36 94 103 91 65 39 28 24 19 137 146 140 153 160 165 171 173 173 173 174 174 176 182 186 189 190 190 193 194 193 192 193 193 193 193 193 195 198 201 202 203 204 204 204 205 206 208 210 210 212 213 214 216 217 218 219 220 222 225 226 228 230 232 233
272 318 331 173 191 309 339 92 13 359 1 358 358 25 24 15 7 2 354 335 344 43 67 36 22 89 77 63 40 23 21 24 44 76 86 105 119 127 137 144 149 154 160 164 169 177 181 183 184 187 190 190 188 189 191 192 193 194 194 195 198 200 201 202 204 204 204 205 206 208 209 209 210 213 214 216 217 217 219 220 223 225 226 228 230 231 233
248 317 307 271 275 328 353 9 344 345 338 331 335 355 10 6 4 1 353 341 340 346 352 318 282 310 51 57 33 13 19 24 39 60 68 80 93 98 103 109 112 119 131 144 153 160 166 173 179 182 182 184 185 186 189 191 193 194 195 197 199 200 201 202 204 205 205 205 206 208 208 208 210 212 214 216 217 217 217 219 222 224 226 228 230 230 232
324 334 314 313 289 239 340 328 318 302 269 287 292 271 5 3 360 358 355 352 347 341 341 327 291 312 47 54 22 6 14 19 36 52 58 66 77 84 91 97 96 100 110 120 132 142 146 158 173 178 180 183 184 184 186 190 192 193 195 199 200 201 202 204 205 206 206 206 207 208 208 208 210 213 215 216 217 217 217 218 221 223 225 227 229 230 231
302 315 283 302 266 200 334 326 316 309 304 290 272 225 39 359 350 352 355 355 355 355 354 345 333 85 81 65 12 8 14 21 36 48 50 55 65 70 76 86 91 95 98 99 102 108 110 118 158 177 181 182 181 182 185 188 191 195 199 202 202 203 204 206 208 208 207 208 208 209 209 209 211 213 215 217 218 217 217 219 221 223 224 226 228 230 231
250 252 253 281 252 262 319 321 314 310 310 298 243 111 44 344 340 349 355 358 4 7 3 3 36 76 89 91 38 18 17 29 39 44 45 46 56 65 69 79 86 88 88 87 84 83 80 81 115 161 176 177 177 181 185 187 193 200 204 206 207 207 207 208 209 209 209 209 209 210 210 212 213 215 216 217 217 217 217 219 222 223 224 225 228 230 231
251 241 249 290 235 270 316 319 314 310 307 311 76 70 9 326 332 349 1 6 8 8 11 28 53 64 71 75 59 36 29 36 37 38 42 42 47 58 66 76 83 83 82 82 80 75 72 75 89 121 147 155 163 176 183 190 202 209 212 213 212 211 210 210 210 210 210 210 211 212 213 214 215 215 216 217 217 216 217 218 220 222 224 225 227 230 232
244 214 223 281 234 311 331 323 320 329 344 60 56 20 340 324 332 351 8 12 7 4 12 30 52 64 62 58 53 43 35 35 32 30 36 38 41 49 58 69 79 83 81 80 78 72 68 70 78 94 105 105 109 128 141 166 208 219 222 223 220 218 216 214 213 212 212 212 213 214 214 214 214 215 217 217 218 217 217 218 219 221 223 224 226 229 232
291 225 179 8 335 350 343 332 336 10 31 42 358 343 331 334 344 357 11 15 8 4 9 17 35 53 54 46 46 44 38 34 32 30 33 33 32 39 46 56 70 80 80 77 73 70 68 67 70 78 83 80 80 81 70 47 36 220 228 224 222 221 219 217 216 214 214 214 214 214 215 215 214 215 216 217 217 217 217 217 218 219 221 223 225 228 231
350 5 38 10 316 326 349 349 18 44 29 3 3 356 339 342 350 358 9 11 7 8 12 15 25 40 45 39 38 40 35 31 29 29 31 31 28 32 38 45 57 70 77 77 73 69 67 65 63 65 68 67 63 53 36 23 24 20 309 238 224 221 219 217 216 215 215 215 215 215 215 215 215 215 215 215 216 217 216 216 216 218 220 221 222 225 228
319 347 48 13 330 2 24 20 34 33 17 17 25 16 357 348 346 351 1 1 2 7 13 18 24 31 34 32 32 34 33 27 25 26 27 26 24 26 32 40 49 60 68 72 71 66 63 63 61 56 56 56 50 38 25 17 15 8 347 297 245 229 222 219 217 215 214 214 214 215 215 214 214 215 214 214 213 214 215 214 215 216 217 218 220 222 224
321 336 49 20 355 16 46 45 41 28 13 13 23 23 7 347 341 347 352 353 0 6 10 16 21 19 21 26 27 26 26 23 21 21 21 21 23 23 24 30 42 55 60 63 65 63 58 59 59 55 52 51 44 31 20 15 10 1 353 338 295 248 230 225 221 216 212 211 211 212 213 213 214 215 214 213 212 212 212 212 214 215 215 216 217 219 221
323 324 33 8 345 357 66 61 48 33 11 359 4 18 8 344 338 343 344 347 1 12 12 13 11 6 11 19 20 19 22 21 17 15 15 13 15 18 18 21 37 54 57 55 58 60 55 54 56 55 50 46 40 28 16 11 7 0 356 343 319 280 245 234 226 217 212 209 207 208 209 210 213 215 215 214 212 210 209 209 211 213 214 214 214 214 217
301 274 301 328 319 252 134 102 66 43 19 359 351 350 349 341 337 340 342 347 2 13 12 7 3 1 3 7 8 10 15 16 12 9 9 6 7 13 17 19 30 49 56 54 58 60 55 53 54 52 47 40 33 24 14 7 1 359 0 348 327 305 264 240 227 217 212 208 203 200 201 204 207 209 212 213 213 212 210 208 208 210 210 210 212 213 215
282 267 310 354 345 299 150 118 79 56 32 5 349 338 334 337 340 341 344 350 359 9 8 4 2 359 355 355 1 2 1 5 7 1 357 358 2 7 12 15 20 30 43 54 59 57 52 51 50 47 40 31 20 13 8 3 359 358 358 351 337 321 289 248 226 215 208 202 195 189 185 183 184 187 197 206 210 213 214 213 213 213 212 213 217 218 218
278 279 5 10 343 293 257 238 58 56 40 13 349 330 323 326 338 349 349 349 352 357 360 5 5 356 344 341 352 359 355 352 355 355 352 353 356 0 7 13 17 18 25 49 57 51 47 48 48 47 41 29 18 9 3 359 358 357 353 346 335 318 294 253 223 207 196 189 185 180 174 169 163 158 166 189 202 207 211 214 217 218 220 223 225 224 220
281 292 312 320 298 276 275 284 338 38 21 356 333 317 312 312 319 343 358 355 349 345 345 355 1 348 334 330 338 354 354 343 345 354 355 348 345 348 357 9 13 9 9 34 59 53 48 50 52 51 44 32 21 11 0 355 355 353 347 336 315 293 272 240 215 199 187 180 177 174 170 167 163 154 144 143 166 193 206 213 217 218 221 227 231 229 223
280 282 286 285 273 269 275 282 293 312 325 320 305 301 300 295 298 319 356 1 344 331 330 338 340 333 327 324 326 336 344 341 343 346 346 344 342 342 348 0 5 357 348 347 31 52 50 50 50 45 37 27 16 5 355 349 348 348 342 327 298 269 247 225 207 194 184 178 173 168 164 163 163 158 146 127 110 111 159 199 213 216 219 224 224 220 216
270 272 273 269 264 265 272 278 278 270 252 247 275 282 279 265 260 279 305 307 317 323 324 328 330 328 324 318 317 322 328 341 344 342 338 340 343 345 348 350 351 349 344 346 13 37 40 42 43 37 28 21 11 358 350 346 346 347 345 329 293 256 230 208 194 187 181 174 170 168 166 163 163 161 154 140 120 105 102 111 130 154 173 190 199 196 192
266 269 269 262 258 260 266 272 272 256 223 214 223 233 251 260 247 225 216 214 245 347 328 315 318 322 321 317 316 318 325 342 348 347 344 341 340 342 342 338 340 351 1 10 25 35 37 40 41 35 25 18 7 353 346 348 353 359 0 344 290 249 225 203 189 182 178 175 172 170 168 167 165 162 156 149 138 124 114 108 104 104 108 114 121 128 132
297 292 288 277 269 263 247 243 253 249 219 207 202 185 193 250 259 209 185 183 163 135 300 300 309 318 319 321 326 328 336 352 353 351 351 344 337 335 333 332 341 7 27 33 40 45 48 48 44 37 26 16 6 355 347 344 355 21 36 46 94 165 198 201 189 179 176 176 173 169 166 163 160 155 148 143 138 131 125 119 112 105 103 106 109 112 116
326 317 310 291 274 267 250 237 247 253 237 228 233 207 182 200 246 227 193 190 179 165 238 297 313 317 314 317 326 333 345 360 359 352 348 343 338 338 340 351 20 40 43 42 41 44 52 53 50 44 30 13 8 5 355 352 72 82 82 84 92 103 118 157 171 169 170 171 169 166 163 157 152 146 139 135 130 125 121 119 115 111 109 110 113 116 117
337 327 318 296 272 266 268 261 261 270 259 241 249 252 198 177 209 237 226 210 202 194 212 260 302 309 307 315 332 347 4 9 359 350 346 346 348 349 353 28 56 53 48 43 37 37 40 39 36 39 30 14 20 42 74 102 93 87 90 95 98 105 117 130 136 142 149 154 156 156 152 146 141 135 130 126 124 120 116 113 111 109 107 108 110 112 115
341 339 339 330 304 271 268 270 259 260 266 261 258 268 261 222 213 232 243 230 214 219 220 214 249 282 291 312 344 5 27 31 18 5 359 1 6 8 15 56 64 49 40 35 32 33 34 30 24 21 17 12 29 135 134 113 99 94 97 102 107 112 121 130 131 126 125 131 136 136 133 129 129 129 125 120 118 115 112 109 105 101 98 98 99 102 107
344 352 358 352 338 282 255 264 260 250 251 254 258 258 256 250 237 230 232 227 216 221 225 202 195 224 236 204 97 80 69 59 50 39 28 25 28 34 46 65 69 56 41 35 32 32 32 27 19 10 6 9 94 168 152 129 114 107 104 104 108 113 121 128 127 122 119 121 125 126 123 119 118 119 117 114 112 111 109 104 96 91 90 89 88 94 106
349 355 3 3 355 329 275 242 242 246 238 230 236 239 238 238 235 227 223 217 209 212 211 186 168 160 145 136 129 117 101 82 68 58 47 40 41 47 56 65 66 61 52 44 39 35 31 23 13 2 360 13 142 163 154 139 127 119 113 109 108 109 113 117 118 117 114 109 107 114 119 117 113 109 107 108 109 108 105 100 94 89 87 84 80 84 100
2 4 5 5 359 350 343 317 249 246 240 228 231 234 231 230 232 232 231 221 211 209 195 172 163 145 129 123 118 112 106 94 77 61 48 42 45 52 60 66 65 61 55 49 45 42 34 24 15 11 17 57 133 151 151 145 134 123 117 114 110 107 107 109 111 111 108 99 89 93 105 110 110 106 103 104 106 106 103 99 95 90 87 82 78 82 92
13 16 12 7 1 356 354 356 343 277 252 248 251 249 245 244 243 241 236 222 211 205 175 155 146 129 113 106 100 97 95 88 72 53 40 42 50 55 63 68 68 63 57 52 49 46 39 33 32 41 55 77 102 120 132 138 136 129 124 120 114 108 106 106 105 104 102 97 91 88 91 97 102 104 104 104 104 103 100 96 93 89 86 81 80 84 90
13 20 22 18 11 5 3 4 4 5 8 357 327 297 272 262 259 250 237 216 192 174 152 137 129 119 106 95 87 81 75 68 63 52 44 46 51 55 62 67 67 64 59 53 49 48 48 49 55 65 73 79 81 79 88 115 127 129 128 125 118 111 108 107 105 102 100 100 98 93 88 87 92 98 101 101 100 99 96 92 88 86 84 80 80 83 86
15 18 24 24 18 14 13 10 4 4 18 31 29 25 27 26 17 4 106 128 127 133 128 118 110 102 94 87 86 83 75 69 66 61 56 58 61 62 62 60 57 59 60 54 49 52 58 62 68 72 75 76 74 66 62 79 107 117 121 122 118 112 108 107 106 104 103 101 99 97 95 94 93 94 96 96 95 93 92 89 85 84 82 80 79 81 80
15 15 17 21 21 20 18 15 11 10 13 19 27 34 36 33 35 45 60 74 85 101 110 106 100 94 86 82 82 80 75 72 71 69 69 73 73 68 63 55 49 49 50 43 42 56 67 72 74 72 69 69 70 66 59 59 80 101 109 112 112 111 109 106 104 103 103 102 101 100 100 98 94 91 92 92 91 89 89 88 85 84 82 79 78 78 76
14 15 14 15 20 22 21 18 19 19 16 13 19 30 38 44 51 54 53 55 65 84 99 99 96 94 89 83 78 74 70 72 75 74 76 80 78 71 62 54 51 52 48 38 41 60 73 79 79 72 66 65 67 69 68 62 62 81 97 101 100 103 105 105 104 102 100 100 100 100 98 96 94 92 90 89 89 88 88 87 86 84 80 77 75 74 71
13 13 13 14 18 22 22 22 23 22 19 15 15 20 28 43 58 61 55 49 51 64 83 90 89 87 84 79 74 70 67 71 78 81 80 82 82 78 68 58 57 62 63 60 60 63 70 80 85 83 78 74 70 70 71 66 55 56 74 88 90 89 91 94 96 97 96 95 94 92 91 91 91 90 87 85 86 86 84 82 82 82 80 76 73 71 69
14 12 12 14 18 20 21 24 25 23 21 21 20 16 17 32 51 57 55 53 52 55 65 73 75 74 73 73 72 67 62 62 71 81 86 85 85 83 75 62 59 63 67 70 69 68 70 76 80 83 86 89 88 85 83 77 64 54 56 64 71 75 78 79 81 83 86 88 88 86 86 85 83 80 78 77 78 79 77 74 74 76 77 75 72 69 68
21 15 14 16 18 20 21 24 27 26 24 24 23 19 18 30 45 50 48 50 53 56 60 63 64 62 62 67 71 72 70 67 67 72 79 81 81 82 78 65 60 64 71 73 74 73 74 75 77 78 81 86 93 97 98 96 89 78 68 61 59 60 64 69 71 71 73 77 80 81 83 84 81 76 72 71 70 70 70 69 69 70 72 73 70 68 67
26 26 24 21 19 21 21 23 28 31 29 27 25 22 21 28 38 43 44 46 49 52 54 56 58 57 58 63 67 69 71 72 72 71 72 71 70 75 79 72 67 70 76 77 76 76 76 75 77 79 80 81 86 92 95 97 96 93 87 79 72 65 61 62 66 69 69 70 71 72 75 77 76 72 68 68 68 68 67 68 68 68 69 70 69 66 64
13 36 45 30 24 28 30 29 29 30 29 28 28 27 27 29 33 35 37 39 41 44 47 49 49 47 48 53 56 56 58 65 72 74 75 73 70 71 78 79 75 75 78 78 76 75 77 77 78 80 82 83 84 86 89 90 91 92 92 90 87 82 74 68 68 70 72 72 71 70 70 71 71 70 68 68 68 68 67 67 67 66 67 70 70 68 66
350 348 348 43 46 39 37 37 38 36 32 29 30 32 32 32 33 33 33 32 32 35 40 43 43 41 41 44 45 41 41 49 59 67 75 75 70 67 70 76 77 76 78 79 78 76 77 79 81 83 85 87 87 86 86 85 85 87 88 89 89 89 86 80 75 73 72 72 71 70 70 71 73 75 74 74 74 74 73 72 71 69 70 72 73 72 71
339 340 350 8 31 55 54 55 55 50 43 40 40 40 39 36 35 36 36 34 30 29 32 37 38 37 38 41 45 45 45 50 56 61 66 71 69 67 69 74 75 75 76 79 80 80 79 81 85 89 90 91 90 89 88 87 86 87 87 88 88 89 88 87 85 82 79 77 75 74 73 74 76 76 75 76 77 76 76 77 76 76 75 76 75 74 73
354 354 5 12 14 33 75 92 94 81 65 54 48 44 43 42 41 41 43 42 38 35 35 39 40 39 38 41 45 47 48 51 55 60 65 70 73 74 74 75 76 76 77 78 79 80 81 83 85 88 89 90 89 88 88 89 89 89 89 89 90 89 89 89 89 88 87 86 84 82 80 80 79 78 78 79 80 79 78 78 78 77 77 77 76 74 72
16 13 19 32 36 47 82 108 111 102 87 73 59 52 51 51 50 50 53 54 51 48 46 46 47 46 45 45 46 47 47 47 47 52 60 67 72 73 74 75 75 76 76 76 76 78 81 84 85 86 87 88 88 88 89 90 91 91 91 91 92 93 93 93 92 92 92 92 91 89 88 86 85 83 82 81 80 80 79 78 76 76 75 74 73 71 69
40 32 26 37 39 29 47 97 100 95 97 106 109 96 77 64 59 60 65 66 65 61 57 54 54 54 54 53 51 51 53 52 47 45 53 62 68 70 72 75 77 78 78 77 77 80 84 87 88 89 89 88 88 89 90 91 91 92 92 93 95 97 98 98 97 96 95 93 92 91 90 89 88 86 84 81 80 80 79 78 76 75 74 72 71 69 68
55 52 40 33 25 12 10 39 71 86 100 114 123 126 112 89 76 73 73 72 69 66 62 59 58 61 64 65 62 59 59 60 58 55 57 62 66 69 72 74 76 80 82 81 79 81 85 88 88 89 90 90 89 90 91 91 91 90 90 92 96 99 100 100 98 96 94 92 90 88 87 87 86 86 84 83 82 81 80 78 77 76 74 72 71 69 66
44 57 55 49 40 23 9 8 16 40 90 119 134 136 120 104 94 88 86 83 78 74 70 68 66 66 67 69 71 70 67 64 62 62 62 63 64 68 72 75 77 79 81 81 79 80 83 86 87 88 89 89 89 90 90 90 89 89 89 91 94 96 98 98 96 94 93 92 91 90 88 88 87 86 85 85 85 84 83 80 77 73 71 68 66 64 61
17 33 57 70 69 56 36 19 8 16 48 92 120 118 106 100 97 94 90 86 80 74 72 73 74 74 75 75 75 75 73 72 69 68 69 69 70 71 74 76 77 78 78 77 76 75 76 79 82 85 87 87 88 89 90 90 90 90 90 91 92 94 95 95 95 93 92 92 92 92 91 92 92 92 92 92 91 88 84 79 72 66 61 58 55 53 51
27 30 44 67 79 77 70 58 41 44 65 80 89 92 92 92 90 84 79 78 77 73 70 68 68 73 81 87 87 85 83 81 78 74 73 74 75 75 74 74 74 75 76 77 77 77 78 80 83 86 87 87 88 89 90 91 90 89 90 91 92 93 94 94 94 93 92 91 91 90 91 92 94 95 96 96 94 90 83 76 67 59 52 47 42 39 36